Location: Aldenham
(51.6667°N, 0.3500°W)
Time: 06:52:27
(UTC+00:00)

Cosmos 2233 Rocket - Pass Details

Date: 18 November 2025
Orbit: 952 x 989 km, 82.9° (Epoch: 12 December)

Event Time Altitude Azimuth Distance (km) Brightness Sun altitude
Rises 17:24:26 0° 194° (SSW) 3,683 7.5 -11.8°
Reaches altitude 10° 17:26:57 10° 196° (SSW) 2,741 6.8 -12.1°
Maximum altitude 17:33:15 75° 281° (WNW) 1,028 4.3 -13.1°
Drops below altitude 10° 17:39:36 10° 8° (N) 2,763 6.2 -14.0°
Sets 17:42:09 0° 10° (N) 3,714 6.8 -14.4°
